Time,TemperatureF,DewpointF,PressureIn,WindDirection,WindDirectionDegrees,WindSpeedMPH,WindSpeedGustMPH,Humidity,HourlyPrecipIn,Conditions,Clouds,dailyrainin,SoftwareType,DateUTC
2013-02-22 00:00:00,11.7,7.2,27.05,NNW,338,3.4,4.7,82,0.00,,---,0.00,VWS V14.01,2013-02-22 06:00:00,
2013-02-22 00:05:00,11.7,7.2,27.05,NNW,338,3.6,4.7,82,0.00,,---,0.00,VWS V14.01,2013-02-22 06:05:00,
2013-02-22 00:10:00,11.7,7.2,27.08,North,0,4.0,4.7,82,0.00,,---,0.00,VWS V14.01,2013-02-22 06:10:00,
2013-02-22 00:15:00,10.4,6.0,27.08,NNW,338,6.7,6.7,82,0.00,,---,0.00,VWS V14.01,2013-02-22 06:15:00,
2013-02-22 00:20:00,10.4,6.0,27.08,NNW,338,5.4,6.7,82,0.00,,---,0.00,VWS V14.01,2013-02-22 06:20:00,
2013-02-22 00:25:00,10.4,6.0,27.05,NNW,338,5.4,6.7,82,0.00,,---,0.00,VWS V14.01,2013-02-22 06:25:00,
2013-02-22 00:30:00,10.0,5.7,27.05,NW,315,5.4,6.7,82,0.00,,---,0.00,VWS V14.01,2013-02-22 06:30:00,
2013-02-22 00:35:00,9.7,5.3,27.08,North,0,3.1,5.4,82,0.00,,---,0.00,VWS V14.01,2013-02-22 06:35:00,
2013-02-22 00:40:00,9.7,5.3,27.08,NNW,338,3.4,5.4,82,0.00,,---,0.00,VWS V14.01,2013-02-22 06:40:00,
2013-02-22 00:45:00,9.7,5.3,27.08,NW,315,2.9,5.4,82,0.00,,---,0.00,VWS V14.01,2013-02-22 06:45:00,
2013-02-22 00:50:00,8.2,3.9,27.08,North,0,2.9,3.1,82,0.00,,---,0.00,VWS V14.01,2013-02-22 06:50:00,
2013-02-22 00:55:00,8.2,3.9,27.08,NNW,338,2.5,3.1,82,0.00,,---,0.00,VWS V14.01,2013-02-22 06:55:00,
2013-02-22 01:00:00,8.2,3.9,27.08,NNW,338,2.5,3.1,82,0.00,,---,0.00,VWS V14.01,2013-02-22 07:00:00,
2013-02-22 01:05:00,8.2,3.9,27.08,NW,315,2.9,3.6,82,0.00,,---,0.00,VWS V14.01,2013-02-22 07:05:00,
2013-02-22 01:10:00,8.2,3.9,27.08,NW,315,2.9,3.6,82,0.00,,---,0.00,VWS V14.01,2013-02-22 07:10:00,
2013-02-22 01:15:00,7.7,3.4,27.08,NNW,338,4.9,4.9,82,0.00,,---,0.00,VWS V14.01,2013-02-22 07:15:00,
2013-02-22 01:20:00,7.7,3.4,27.08,NW,315,4.0,4.9,82,0.00,,---,0.00,VWS V14.01,2013-02-22 07:20:00,
2013-02-22 01:25:00,7.7,3.4,27.08,NNW,338,3.6,4.9,82,0.00,,---,0.00,VWS V14.01,2013-02-22 07:25:00,
2013-02-22 01:30:00,7.7,3.4,27.08,NNE,22,3.1,4.9,82,0.00,,---,0.00,VWS V14.01,2013-02-22 07:30:00,
2013-02-22 01:35:00,7.7,3.4,27.08,NW,315,4.3,4.3,82,0.00,,---,0.00,VWS V14.01,2013-02-22 07:35:00,
2013-02-22 01:40:00,7.7,3.4,27.08,NNW,338,3.4,4.3,82,0.00,,---,0.00,VWS V14.01,2013-02-22 07:40:00,
2013-02-22 01:45:00,7.7,3.4,27.08,NW,315,2.9,4.3,82,0.00,,---,0.00,VWS V14.01,2013-02-22 07:45:00,
2013-02-22 01:50:00,7.7,3.4,27.08,NW,315,2.9,2.9,82,0.00,,---,0.00,VWS V14.01,2013-02-22 07:50:00,
2013-02-22 01:55:00,7.5,3.2,27.08,NNW,338,2.2,2.9,82,0.00,,---,0.00,VWS V14.01,2013-02-22 07:55:00,
2013-02-22 02:00:00,7.2,2.8,27.08,NNW,338,2.7,2.9,82,0.00,,---,0.00,VWS V14.01,2013-02-22 08:00:00,
2013-02-22 02:05:00,7.2,2.8,27.08,North,0,2.9,2.9,82,0.00,,---,0.00,VWS V14.01,2013-02-22 08:05:00,
2013-02-22 02:10:00,7.0,2.7,27.08,NNW,338,2.9,2.9,82,0.00,,---,0.00,VWS V14.01,2013-02-22 08:10:00,
2013-02-22 02:15:00,7.0,2.7,27.08,NW,315,6.0,6.0,82,0.00,,---,0.00,VWS V14.01,2013-02-22 08:15:00,
2013-02-22 02:20:00,7.0,2.7,27.08,NW,315,3.8,6.0,82,0.00,,---,0.00,VWS V14.01,2013-02-22 08:20:00,
2013-02-22 02:25:00,7.5,3.2,27.08,NNW,338,3.8,6.0,82,0.00,,---,0.00,VWS V14.01,2013-02-22 08:25:00,
2013-02-22 02:30:00,7.5,3.2,27.08,NW,315,0.9,6.0,82,0.00,,---,0.00,VWS V14.01,2013-02-22 08:30:00,
2013-02-22 02:35:00,7.5,3.2,27.08,West,270,5.4,5.4,82,0.00,,---,0.00,VWS V14.01,2013-02-22 08:35:00,
2013-02-22 02:40:00,7.5,3.2,27.08,NW,315,3.6,5.4,82,0.00,,---,0.00,VWS V14.01,2013-02-22 08:40:00,
2013-02-22 02:45:00,6.1,1.8,27.08,NW,315,4.9,5.4,82,0.00,,---,0.00,VWS V14.01,2013-02-22 08:45:00,
2013-02-22 02:50:00,6.1,1.8,27.08,West,270,3.6,5.4,82,0.00,,---,0.00,VWS V14.01,2013-02-22 08:50:00,
2013-02-22 02:55:00,5.0,0.7,27.08,NW,315,2.9,5.4,82,0.00,,---,0.00,VWS V14.01,2013-02-22 08:55:00,
2013-02-22 03:00:00,4.5,0.2,27.08,WNW,292,2.7,5.4,82,0.00,,---,0.00,VWS V14.01,2013-02-22 09:00:00,
2013-02-22 03:05:00,4.5,0.2,27.08,NW,315,3.4,3.4,82,0.00,,---,0.00,VWS V14.01,2013-02-22 09:05:00,
2013-02-22 03:10:00,3.7,-0.5,27.08,NW,315,2.9,3.4,82,0.00,,---,0.00,VWS V14.01,2013-02-22 09:10:00,
2013-02-22 03:15:00,3.7,-0.5,27.08,North,0,2.5,3.4,82,0.00,,---,0.00,VWS V14.01,2013-02-22 09:15:00,
2013-02-22 03:20:00,3.6,-0.7,27.08,North,0,1.6,2.7,82,0.00,,---,0.00,VWS V14.01,2013-02-22 09:20:00,
2013-02-22 03:25:00,3.4,-0.9,27.08,North,0,2.5,2.7,82,0.00,,---,0.00,VWS V14.01,2013-02-22 09:25:00,
2013-02-22 03:30:00,3.4,-0.9,27.08,North,0,2.7,3.8,82,0.00,,---,0.00,VWS V14.01,2013-02-22 09:30:00,
2013-02-22 03:35:00,2.5,-1.8,27.08,North,0,3.1,3.1,82,0.00,,---,0.00,VWS V14.01,2013-02-22 09:35:00,
2013-02-22 03:40:00,2.5,-1.8,27.08,North,0,3.4,3.8,82,0.00,,---,0.00,VWS V14.01,2013-02-22 09:40:00,
2013-02-22 03:45:00,2.5,-1.8,27.08,NNW,338,2.5,3.8,82,0.00,,---,0.00,VWS V14.01,2013-02-22 09:45:00,
2013-02-22 03:50:00,2.5,-1.8,27.05,NW,315,3.1,3.1,82,0.00,,---,0.00,VWS V14.01,2013-02-22 09:50:00,
2013-02-22 03:55:00,2.5,-1.8,27.05,NW,315,1.3,3.1,82,0.00,,---,0.00,VWS V14.01,2013-02-22 09:55:00,
2013-02-22 04:00:00,2.5,-1.8,27.05,NW,315,0.0,3.1,82,0.00,,---,0.00,VWS V14.01,2013-02-22 10:00:00,
2013-02-22 04:05:00,2.5,-1.8,27.05,NW,315,0.0,0.0,82,0.00,,---,0.00,VWS V14.01,2013-02-22 10:05:00,
2013-02-22 04:10:00,1.8,-2.5,27.05,North,0,2.7,3.1,82,0.00,,---,0.00,VWS V14.01,2013-02-22 10:10:00,
2013-02-22 04:15:00,2.3,-1.9,27.08,North,0,2.5,3.1,82,0.00,,---,0.00,VWS V14.01,2013-02-22 10:15:00,
2013-02-22 04:20:00,2.3,-1.9,27.08,NNW,338,2.2,2.2,82,0.00,,---,0.00,VWS V14.01,2013-02-22 10:20:00,
2013-02-22 04:25:00,2.3,-1.9,27.08,NW,315,2.5,2.5,82,0.00,,---,0.00,VWS V14.01,2013-02-22 10:25:00,
2013-02-22 04:30:00,2.8,-1.4,27.08,NW,315,0.0,2.5,82,0.00,,---,0.00,VWS V14.01,2013-02-22 10:30:00,
2013-02-22 04:35:00,2.3,-1.9,27.08,North,0,1.6,2.2,82,0.00,,---,0.00,VWS V14.01,2013-02-22 10:35:00,
2013-02-22 04:40:00,2.3,-1.9,27.05,North,0,3.4,3.4,82,0.00,,---,0.00,VWS V14.01,2013-02-22 10:40:00,
2013-02-22 04:45:00,0.3,-3.9,27.05,North,0,3.1,3.4,82,0.00,,---,0.00,VWS V14.01,2013-02-22 10:45:00,
2013-02-22 04:50:00,0.3,-3.9,27.05,North,0,2.9,2.9,82,0.00,,---,0.00,VWS V14.01,2013-02-22 10:50:00,
2013-02-22 04:55:00,0.3,-3.9,27.08,NW,315,2.7,2.9,82,0.00,,---,0.00,VWS V14.01,2013-02-22 10:55:00,
2013-02-22 05:00:00,1.4,-2.8,27.08,NW,315,0.0,2.9,82,0.00,,---,0.00,VWS V14.01,2013-02-22 11:00:00,
2013-02-22 05:05:00,1.4,-2.8,27.08,North,0,2.2,2.2,82,0.00,,---,0.00,VWS V14.01,2013-02-22 11:05:00,
2013-02-22 05:10:00,1.2,-3.0,27.08,NW,315,2.9,2.9,82,0.00,,---,0.00,VWS V14.01,2013-02-22 11:10:00,
2013-02-22 05:15:00,1.4,-2.8,27.08,North,0,0.0,2.9,82,0.00,,---,0.00,VWS V14.01,2013-02-22 11:15:00,
2013-02-22 05:20:00,1.4,-2.8,27.08,NNW,338,2.7,2.7,82,0.00,,---,0.00,VWS V14.01,2013-02-22 11:20:00,
2013-02-22 05:25:00,1.4,-2.8,27.08,NW,315,4.0,4.0,82,0.00,,---,0.00,VWS V14.01,2013-02-22 11:25:00,
2013-02-22 05:30:00,1.4,-2.8,27.08,North,0,2.5,4.0,82,0.00,,---,0.00,VWS V14.01,2013-02-22 11:30:00,
2013-02-22 05:35:00,3.0,-1.2,27.08,NNW,338,2.7,4.0,82,0.00,,---,0.00,VWS V14.01,2013-02-22 11:35:00,
2013-02-22 05:40:00,2.8,-1.4,27.08,North,0,2.2,4.0,82,0.00,,---,0.00,VWS V14.01,2013-02-22 11:40:00,
2013-02-22 05:45:00,2.8,-1.4,27.08,North,0,2.0,4.0,82,0.00,,---,0.00,VWS V14.01,2013-02-22 11:45:00,
2013-02-22 05:49:00,2.8,-1.4,27.08,NNW,338,0.0,2.0,82,0.00,,---,0.00,VWS V14.01,2013-02-22 11:49:00,
2013-02-22 05:54:00,2.7,-1.6,27.08,NNW,338,1.3,2.0,82,0.00,,---,0.00,VWS V14.01,2013-02-22 11:54:00,
2013-02-22 05:59:00,2.7,-1.6,27.08,NNW,338,1.1,2.0,82,0.00,,---,0.00,VWS V14.01,2013-02-22 11:59:00,
2013-02-22 06:00:00,-0.2,-4.4,27.11,SW,225,0.0,2.5,82,0.00,,---,0.00,VWS V14.01,2013-02-22 12:00:00,
2013-02-22 06:04:00,2.7,-1.6,27.11,NNW,338,0.9,2.0,82,0.00,,---,0.00,VWS V14.01,2013-02-22 12:04:00,
2013-02-22 06:09:00,2.7,-1.6,27.11,WNW,292,0.0,2.0,82,0.00,,---,0.00,VWS V14.01,2013-02-22 12:09:00,
2013-02-22 06:14:00,2.7,-1.6,27.11,NW,315,2.0,2.5,82,0.00,,---,0.00,VWS V14.01,2013-02-22 12:14:00,
2013-02-22 06:15:00,0.1,-4.0,27.11,NW,315,2.2,2.9,82,0.00,,---,0.00,VWS V14.01,2013-02-22 12:15:00,
2013-02-22 06:19:00,2.7,-1.6,27.08,NNW,338,2.5,2.5,82,0.00,,---,0.00,VWS V14.01,2013-02-22 12:19:00,
2013-02-22 06:24:00,2.7,-1.6,27.08,NNW,338,2.0,2.5,82,0.00,,---,0.00,VWS V14.01,2013-02-22 12:24:00,
2013-02-22 06:29:00,1.9,-2.3,27.08,NNW,338,1.6,2.5,82,0.00,,---,0.00,VWS V14.01,2013-02-22 12:29:00,
2013-02-22 06:30:00,0.3,-3.9,27.11,North,0,2.9,2.9,82,0.00,,---,0.00,VWS V14.01,2013-02-22 12:30:00,
2013-02-22 06:34:00,1.9,-2.3,27.08,NNW,338,1.6,2.2,82,0.00,,---,0.00,VWS V14.01,2013-02-22 12:34:00,
2013-02-22 06:39:00,0.9,-3.3,27.08,NNW,338,2.5,2.5,82,0.00,,---,0.00,VWS V14.01,2013-02-22 12:39:00,
2013-02-22 06:44:00,0.5,-3.7,27.08,NNW,338,0.0,2.5,82,0.00,,---,0.00,VWS V14.01,2013-02-22 12:44:00,
2013-02-22 06:45:00,0.3,-3.9,27.11,NNW,338,2.0,3.1,82,0.00,,---,0.00,VWS V14.01,2013-02-22 12:45:00,
2013-02-22 06:49:00,0.5,-3.7,27.11,NNW,338,0.0,2.5,82,0.00,,---,0.00,VWS V14.01,2013-02-22 12:49:00,
2013-02-22 06:54:00,0.5,-3.7,27.11,NNW,338,0.0,2.5,82,0.00,,---,0.00,VWS V14.01,2013-02-22 12:54:00,
2013-02-22 06:59:00,-0.2,-4.4,27.11,SW,225,0.0,2.5,82,0.00,,---,0.00,VWS V14.01,2013-02-22 12:59:00,
2013-02-22 07:00:00,2.7,-1.6,27.11,West,270,3.1,3.4,82,0.00,,---,0.00,VWS V14.01,2013-02-22 13:00:00,
2013-02-22 07:04:00,-0.4,-4.6,27.11,NW,315,2.9,2.9,82,0.00,,---,0.00,VWS V14.01,2013-02-22 13:04:00,
2013-02-22 07:09:00,-0.6,-4.8,27.11,West,270,2.9,2.9,82,0.00,,---,0.00,VWS V14.01,2013-02-22 13:09:00,
2013-02-22 07:14:00,0.1,-4.0,27.11,NW,315,2.2,2.9,82,0.00,,---,0.00,VWS V14.01,2013-02-22 13:14:00,
2013-02-22 07:15:00,6.4,2.1,27.11,WNW,292,2.9,3.1,82,0.00,,---,0.00,VWS V14.01,2013-02-22 13:15:00,
2013-02-22 07:19:00,0.3,-3.9,27.11,North,0,0.0,2.2,82,0.00,,---,0.00,VWS V14.01,2013-02-22 13:19:00,
2013-02-22 07:24:00,0.0,-4.2,27.11,NNW,338,2.2,2.2,82,0.00,,---,0.00,VWS V14.01,2013-02-22 13:24:00,
2013-02-22 07:29:00,0.0,-4.2,27.11,NW,315,2.9,2.9,82,0.00,,---,0.00,VWS V14.01,2013-02-22 13:29:00,
2013-02-22 07:34:00,0.3,-3.9,27.11,NNW,338,3.1,3.1,82,0.00,,---,0.00,VWS V14.01,2013-02-22 13:34:00,
2013-02-22 07:39:00,0.3,-3.9,27.11,NW,315,0.0,3.1,82,0.00,,---,0.00,VWS V14.01,2013-02-22 13:39:00,
2013-02-22 07:44:00,0.3,-3.9,27.11,NNW,338,2.0,3.1,82,0.00,,---,0.00,VWS V14.01,2013-02-22 13:44:00,
2013-02-22 07:49:00,2.7,-1.6,27.11,NNW,338,2.5,2.5,82,0.00,,---,0.00,VWS V14.01,2013-02-22 13:49:00,
2013-02-22 07:54:00,2.7,-1.6,27.11,West,270,3.1,3.4,82,0.00,,---,0.00,VWS V14.01,2013-02-22 13:54:00,
2013-02-22 07:59:00,2.7,-1.6,27.11,West,270,3.1,3.4,82,0.00,,---,0.00,VWS V14.01,2013-02-22 13:59:00,
2013-02-22 08:00:00,12.9,8.5,27.14,West,270,4.3,7.4,82,0.00,,---,0.00,VWS V14.01,2013-02-22 14:00:00,
2013-02-22 08:04:00,2.7,-1.6,27.11,West,270,2.5,3.1,82,0.00,,---,0.00,VWS V14.01,2013-02-22 14:04:00,
2013-02-22 08:09:00,2.7,-1.6,27.11,NW,315,1.1,3.1,82,0.00,,---,0.00,VWS V14.01,2013-02-22 14:09:00,
2013-02-22 08:14:00,6.4,2.1,27.11,WNW,292,2.9,3.1,82,0.00,,---,0.00,VWS V14.01,2013-02-22 14:14:00,
2013-02-22 08:15:00,12.9,8.5,27.14,West,270,5.8,5.8,82,0.00,,---,0.00,VWS V14.01,2013-02-22 14:15:00,
2013-02-22 08:19:00,7.3,3.0,27.11,WNW,292,2.2,3.1,82,0.00,,---,0.00,VWS V14.01,2013-02-22 14:19:00,
2013-02-22 08:24:00,7.3,3.0,27.14,West,270,2.7,3.1,82,0.00,,---,0.00,VWS V14.01,2013-02-22 14:24:00,
2013-02-22 08:29:00,9.3,4.9,27.14,West,270,3.6,4.9,82,0.00,,---,0.00,VWS V14.01,2013-02-22 14:29:00,
2013-02-22 08:34:00,9.3,4.9,27.14,WSW,248,2.7,4.9,82,0.00,,---,0.00,VWS V14.01,2013-02-22 14:34:00,
2013-02-22 08:39:00,10.4,6.0,27.14,NW,315,5.4,5.4,82,0.00,,---,0.00,VWS V14.01,2013-02-22 14:39:00,
2013-02-22 08:44:00,11.3,6.9,27.14,NW,315,5.6,5.8,82,0.00,,---,0.00,VWS V14.01,2013-02-22 14:44:00,
2013-02-22 08:49:00,11.3,6.9,27.14,WNW,292,7.4,7.4,82,0.00,,---,0.00,VWS V14.01,2013-02-22 14:49:00,
2013-02-22 08:54:00,11.8,7.4,27.14,West,270,6.0,7.4,82,0.00,,---,0.00,VWS V14.01,2013-02-22 14:54:00,
2013-02-22 08:59:00,11.8,7.4,27.14,WNW,292,5.8,7.4,82,0.00,,---,0.00,VWS V14.01,2013-02-22 14:59:00,
2013-02-22 09:04:00,12.9,8.5,27.14,WNW,292,4.3,4.5,82,0.00,,---,0.00,VWS V14.01,2013-02-22 15:04:00,
2013-02-22 09:09:00,12.9,8.5,27.14,West,270,4.3,5.8,82,0.00,,---,0.00,VWS V14.01,2013-02-22 15:09:00,
2013-02-22 09:14:00,12.9,8.5,27.14,West,270,5.6,5.8,82,0.00,,---,0.00,VWS V14.01,2013-02-22 15:14:00,
2013-02-22 09:15:00,33.3,14.7,27.14,West,270,1.3,7.4,46,0.00,,---,0.00,VWS V14.01,2013-02-22 15:15:00,
2013-02-22 09:19:00,12.9,8.5,27.14,WNW,292,4.7,5.8,82,0.00,,---,0.00,VWS V14.01,2013-02-22 15:19:00,
2013-02-22 09:24:00,12.9,8.5,27.14,NNW,338,5.8,6.0,82,0.00,,---,0.00,VWS V14.01,2013-02-22 15:24:00,
2013-02-22 09:29:00,17.6,3.4,27.14,NW,315,6.0,6.0,53,0.00,,---,0.00,VWS V14.01,2013-02-22 15:29:00,
2013-02-22 09:34:00,17.8,3.2,27.14,NW,315,7.2,7.4,52,0.00,,---,0.00,VWS V14.01,2013-02-22 15:34:00,
2013-02-22 09:39:00,17.8,3.2,27.14,NW,315,3.8,7.4,52,0.00,,---,0.00,VWS V14.01,2013-02-22 15:39:00,
2013-02-22 09:44:00,17.8,3.2,27.14,WNW,292,3.1,7.4,52,0.00,,---,0.00,VWS V14.01,2013-02-22 15:44:00,
2013-02-22 09:45:00,39.4,16.5,27.14,NW,315,0.9,3.1,39,0.00,,---,0.00,VWS V14.01,2013-02-22 15:45:00,
2013-02-22 09:49:00,17.8,3.2,27.14,NW,315,2.9,7.4,52,0.00,,---,0.00,VWS V14.01,2013-02-22 15:49:00,
2013-02-22 09:54:00,17.8,3.2,27.14,NW,315,3.6,7.4,52,0.00,,---,0.00,VWS V14.01,2013-02-22 15:54:00,
2013-02-22 09:59:00,17.8,3.2,27.14,NW,315,3.6,7.4,52,0.00,,---,0.00,VWS V14.01,2013-02-22 15:59:00,
2013-02-22 10:04:00,17.8,3.2,27.14,NW,315,3.6,7.4,52,0.00,,---,0.00,VWS V14.01,2013-02-22 16:04:00,
2013-02-22 10:09:00,17.8,3.2,27.14,NW,315,1.1,7.4,52,0.00,,---,0.00,VWS V14.01,2013-02-22 16:09:00,
2013-02-22 10:14:00,31.3,12.4,27.14,NW,315,2.5,7.4,45,0.00,,---,0.00,VWS V14.01,2013-02-22 16:14:00,
2013-02-22 10:15:00,45.1,17.8,27.14,SSW,202,1.3,3.6,33,0.00,,---,0.00,VWS V14.01,2013-02-22 16:15:00,
2013-02-22 10:19:00,33.3,14.7,27.14,West,270,0.0,1.3,46,0.00,,---,0.00,VWS V14.01,2013-02-22 16:19:00,
2013-02-22 10:24:00,33.3,14.7,27.14,West,270,2.2,2.2,46,0.00,,---,0.00,VWS V14.01,2013-02-22 16:24:00,
2013-02-22 10:29:00,36.1,15.8,27.14,WNW,292,0.0,2.2,43,0.00,,---,0.00,VWS V14.01,2013-02-22 16:29:00,
2013-02-22 10:34:00,36.1,15.8,27.14,WNW,292,3.1,3.1,43,0.00,,---,0.00,VWS V14.01,2013-02-22 16:34:00,
2013-02-22 10:39:00,38.8,17.2,27.14,NW,315,0.9,3.1,41,0.00,,---,0.00,VWS V14.01,2013-02-22 16:39:00,
2013-02-22 10:44:00,38.8,17.2,27.14,West,270,2.0,3.1,41,0.00,,---,0.00,VWS V14.01,2013-02-22 16:44:00,
2013-02-22 10:45:00,35.1,13.2,27.14,West,270,4.9,4.9,40,0.00,,---,0.00,VWS V14.01,2013-02-22 16:45:00,
2013-02-22 10:49:00,39.2,15.7,27.14,West,270,1.6,1.6,38,0.00,,---,0.00,VWS V14.01,2013-02-22 16:49:00,
2013-02-22 10:54:00,39.2,15.7,27.14,West,270,3.6,3.6,38,0.00,,---,0.00,VWS V14.01,2013-02-22 16:54:00,
2013-02-22 10:59:00,40.8,16.6,27.14,WNW,292,3.6,3.6,37,0.00,,---,0.00,VWS V14.01,2013-02-22 16:59:00,
2013-02-22 11:04:00,41.7,16.8,27.14,WNW,292,1.1,3.6,36,0.00,,---,0.00,VWS V14.01,2013-02-22 17:04:00,
2013-02-22 11:09:00,41.7,16.8,27.14,SW,225,1.1,3.6,36,0.00,,---,0.00,VWS V14.01,2013-02-22 17:09:00,
2013-02-22 11:14:00,45.1,17.8,27.14,SW,225,2.9,3.6,33,0.00,,---,0.00,VWS V14.01,2013-02-22 17:14:00,
2013-02-22 11:15:00,32.4,11.9,27.14,West,270,6.3,6.3,42,0.00,,---,0.00,VWS V14.01,2013-02-22 17:15:00,
2013-02-22 11:19:00,45.1,17.8,27.14,South,180,1.6,1.6,33,0.00,,---,0.00,VWS V14.01,2013-02-22 17:19:00,
2013-02-22 11:24:00,40.1,14.0,27.14,SSE,158,2.5,2.5,34,0.00,,---,0.00,VWS V14.01,2013-02-22 17:24:00,
2013-02-22 11:29:00,37.9,12.7,27.14,West,270,3.4,3.4,35,0.00,,---,0.00,VWS V14.01,2013-02-22 17:29:00,
2013-02-22 11:34:00,37.9,12.7,27.11,West,270,4.3,4.3,35,0.00,,---,0.00,VWS V14.01,2013-02-22 17:34:00,
2013-02-22 11:39:00,35.1,13.2,27.14,WNW,292,2.5,4.3,40,0.00,,---,0.00,VWS V14.01,2013-02-22 17:39:00,
2013-02-22 11:44:00,35.1,13.2,27.14,West,270,4.9,4.9,40,0.00,,---,0.00,VWS V14.01,2013-02-22 17:44:00,
2013-02-22 11:45:00,32.9,12.9,27.14,WNW,292,2.9,6.9,43,0.00,,---,0.00,VWS V14.01,2013-02-22 17:45:00,
2013-02-22 11:49:00,35.1,13.2,27.14,NW,315,4.9,4.9,40,0.00,,---,0.00,VWS V14.01,2013-02-22 17:49:00,
2013-02-22 11:54:00,32.4,11.9,27.14,West,270,4.9,4.9,42,0.00,,---,0.00,VWS V14.01,2013-02-22 17:54:00,
2013-02-22 11:59:00,32.4,11.9,27.14,West,270,5.6,5.6,42,0.00,,---,0.00,VWS V14.01,2013-02-22 17:59:00,
2013-02-22 12:04:00,32.4,11.9,27.14,WNW,292,5.8,5.8,42,0.00,,---,0.00,VWS V14.01,2013-02-22 18:04:00,
2013-02-22 12:09:00,32.5,12.0,27.14,West,270,2.7,5.8,42,0.00,,---,0.00,VWS V14.01,2013-02-22 18:09:00,
2013-02-22 12:14:00,32.4,11.9,27.14,West,270,6.3,6.3,42,0.00,,---,0.00,VWS V14.01,2013-02-22 18:14:00,
2013-02-22 12:15:00,37.8,16.2,27.14,West,270,6.3,6.5,41,0.00,,---,0.00,VWS V14.01,2013-02-22 18:15:00,
2013-02-22 12:19:00,32.4,11.9,27.11,West,270,6.5,6.5,42,0.00,,---,0.00,VWS V14.01,2013-02-22 18:19:00,
2013-02-22 12:24:00,31.5,11.0,27.11,West,270,4.9,6.9,42,0.00,,---,0.00,VWS V14.01,2013-02-22 18:24:00,
2013-02-22 12:29:00,31.8,11.4,27.11,WNW,292,2.7,6.9,42,0.00,,---,0.00,VWS V14.01,2013-02-22 18:29:00,
2013-02-22 12:30:00,39.9,18.1,27.14,WNW,292,4.3,6.3,41,0.00,,---,0.00,VWS V14.01,2013-02-22 18:30:00,
2013-02-22 12:34:00,33.6,13.0,27.14,West,270,4.0,6.9,42,0.00,,---,0.00,VWS V14.01,2013-02-22 18:34:00,
2013-02-22 12:39:00,33.6,13.0,27.14,West,270,4.0,6.9,42,0.00,,---,0.00,VWS V14.01,2013-02-22 18:39:00,
2013-02-22 12:44:00,32.9,12.9,27.14,West,270,4.3,6.9,43,0.00,,---,0.00,VWS V14.01,2013-02-22 18:44:00,
2013-02-22 12:45:00,41.2,18.7,27.14,West,270,4.0,4.3,40,0.00,,---,0.00,VWS V14.01,2013-02-22 18:45:00,
2013-02-22 12:49:00,32.9,12.9,27.14,WNW,292,2.9,2.9,43,0.00,,---,0.00,VWS V14.01,2013-02-22 18:49:00,
2013-02-22 12:54:00,34.7,14.0,27.14,WNW,292,4.9,4.9,42,0.00,,---,0.00,VWS V14.01,2013-02-22 18:54:00,
2013-02-22 12:59:00,34.7,14.0,27.14,West,270,4.5,4.9,42,0.00,,---,0.00,VWS V14.01,2013-02-22 18:59:00,
2013-02-22 13:04:00,36.1,15.3,27.14,WNW,292,6.5,6.5,42,0.00,,---,0.00,VWS V14.01,2013-02-22 19:04:00,
2013-02-22 13:09:00,35.6,14.8,27.14,WNW,292,6.5,6.5,42,0.00,,---,0.00,VWS V14.01,2013-02-22 19:09:00,
2013-02-22 13:14:00,37.8,16.2,27.14,WNW,292,5.4,6.5,41,0.00,,---,0.00,VWS V14.01,2013-02-22 19:14:00,
2013-02-22 13:19:00,39.9,18.1,27.14,SW,225,2.9,6.3,41,0.00,,---,0.00,VWS V14.01,2013-02-22 19:19:00,
2013-02-22 13:24:00,39.9,18.1,27.14,West,270,4.3,6.3,41,0.00,,---,0.00,VWS V14.01,2013-02-22 19:24:00,
2013-02-22 13:29:00,39.9,18.1,27.14,WNW,292,4.3,6.3,41,0.00,,---,0.00,VWS V14.01,2013-02-22 19:29:00,
2013-02-22 13:30:00,40.3,17.9,27.11,NW,315,6.0,6.5,40,0.00,,---,0.00,VWS V14.01,2013-02-22 19:30:00,
2013-02-22 13:34:00,39.9,18.1,27.14,WNW,292,4.3,4.3,41,0.00,,---,0.00,VWS V14.01,2013-02-22 19:34:00,
2013-02-22 13:39:00,40.3,18.5,27.14,West,270,2.5,4.3,41,0.00,,---,0.00,VWS V14.01,2013-02-22 19:39:00,
2013-02-22 13:44:00,41.2,18.7,27.14,West,270,4.0,4.3,40,0.00,,---,0.00,VWS V14.01,2013-02-22 19:44:00,
2013-02-22 13:49:00,41.2,18.7,27.14,WNW,292,3.1,4.0,40,0.00,,---,0.00,VWS V14.01,2013-02-22 19:49:00,
2013-02-22 13:54:00,41.5,19.0,27.14,WNW,292,3.4,4.0,40,0.00,,---,0.00,VWS V14.01,2013-02-22 19:54:00,
2013-02-22 13:59:00,41.2,18.7,27.14,West,270,3.8,4.0,40,0.00,,---,0.00,VWS V14.01,2013-02-22 19:59:00,
2013-02-22 14:00:00,41.2,18.7,27.11,West,270,4.3,6.0,40,0.00,,---,0.00,VWS V14.01,2013-02-22 20:00:00,
2013-02-22 14:04:00,41.9,19.4,27.14,WNW,292,2.9,4.0,40,0.00,,---,0.00,VWS V14.01,2013-02-22 20:04:00,
2013-02-22 14:09:00,41.9,19.4,27.14,WNW,292,3.4,4.0,40,0.00,,---,0.00,VWS V14.01,2013-02-22 20:09:00,
2013-02-22 14:14:00,43.2,20.5,27.14,WNW,292,5.6,5.6,40,0.00,,---,0.00,VWS V14.01,2013-02-22 20:14:00,
2013-02-22 14:15:00,41.5,19.0,27.11,NW,315,4.0,5.6,40,0.00,,---,0.00,VWS V14.01,2013-02-22 20:15:00,
2013-02-22 14:19:00,42.4,19.8,27.14,NW,315,6.3,6.3,40,0.00,,---,0.00,VWS V14.01,2013-02-22 20:19:00,
2013-02-22 14:24:00,40.3,17.9,27.11,NW,315,4.0,6.5,40,0.00,,---,0.00,VWS V14.01,2013-02-22 20:24:00,
2013-02-22 14:29:00,40.3,17.9,27.11,NW,315,6.0,6.5,40,0.00,,---,0.00,VWS V14.01,2013-02-22 20:29:00,
2013-02-22 14:30:00,46.2,22.6,27.11,WNW,292,3.1,4.0,39,0.00,,---,0.00,VWS V14.01,2013-02-22 20:30:00,
2013-02-22 14:34:00,40.3,17.9,27.11,WNW,292,2.9,6.0,40,0.00,,---,0.00,VWS V14.01,2013-02-22 20:34:00,
2013-02-22 14:39:00,40.8,19.0,27.11,West,270,2.9,6.0,41,0.00,,---,0.00,VWS V14.01,2013-02-22 20:39:00,
2013-02-22 14:44:00,41.2,18.7,27.11,WNW,292,4.3,6.0,40,0.00,,---,0.00,VWS V14.01,2013-02-22 20:44:00,
2013-02-22 14:45:00,46.2,22.6,27.11,WNW,292,2.2,3.1,39,0.00,,---,0.00,VWS V14.01,2013-02-22 20:45:00,
2013-02-22 14:49:00,41.2,18.7,27.11,NW,315,5.8,6.0,40,0.00,,---,0.00,VWS V14.01,2013-02-22 20:49:00,
2013-02-22 14:54:00,41.2,18.7,27.11,NW,315,5.8,6.0,40,0.00,,---,0.00,VWS V14.01,2013-02-22 20:54:00,
2013-02-22 14:59:00,41.2,18.7,27.11,NW,315,4.9,6.0,40,0.00,,---,0.00,VWS V14.01,2013-02-22 20:59:00,
2013-02-22 15:00:00,47.7,23.9,27.11,WNW,292,2.2,2.2,39,0.00,,---,0.00,VWS V14.01,2013-02-22 21:00:00,
2013-02-22 15:04:00,41.2,18.7,27.11,West,270,4.3,4.3,40,0.00,,---,0.00,VWS V14.01,2013-02-22 21:04:00,
2013-02-22 15:09:00,41.2,18.7,27.11,NW,315,5.4,5.6,40,0.00,,---,0.00,VWS V14.01,2013-02-22 21:09:00,
2013-02-22 15:14:00,41.4,18.9,27.11,North,0,2.9,5.6,40,0.00,,---,0.00,VWS V14.01,2013-02-22 21:14:00,
2013-02-22 15:15:00,48.4,24.0,27.11,SW,225,0.0,2.2,38,0.00,,---,0.00,VWS V14.01,2013-02-22 21:15:00,
2013-02-22 15:19:00,41.5,19.0,27.11,NW,315,2.9,4.0,40,0.00,,---,0.00,VWS V14.01,2013-02-22 21:19:00,
2013-02-22 15:24:00,42.1,19.5,27.11,North,0,3.8,4.0,40,0.00,,---,0.00,VWS V14.01,2013-02-22 21:24:00,
2013-02-22 15:29:00,42.1,19.5,27.11,NW,315,3.8,4.0,40,0.00,,---,0.00,VWS V14.01,2013-02-22 21:29:00,
2013-02-22 15:30:00,47.5,23.8,27.11,NW,315,0.0,2.5,39,0.00,,---,0.00,VWS V14.01,2013-02-22 21:30:00,
2013-02-22 15:34:00,46.2,22.6,27.11,WNW,292,3.1,3.1,39,0.00,,---,0.00,VWS V14.01,2013-02-22 21:34:00,
2013-02-22 15:39:00,46.2,22.6,27.11,WNW,292,2.7,3.1,39,0.00,,---,0.00,VWS V14.01,2013-02-22 21:39:00,
2013-02-22 15:44:00,46.2,22.6,27.11,WNW,292,2.7,3.1,39,0.00,,---,0.00,VWS V14.01,2013-02-22 21:44:00,
2013-02-22 15:49:00,47.7,23.9,27.11,West,270,0.0,2.2,39,0.00,,---,0.00,VWS V14.01,2013-02-22 21:49:00,
2013-02-22 15:54:00,46.8,23.1,27.11,North,0,1.6,2.2,39,0.00,,---,0.00,VWS V14.01,2013-02-22 21:54:00,
2013-02-22 15:59:00,47.7,23.9,27.11,WNW,292,2.2,2.2,39,0.00,,---,0.00,VWS V14.01,2013-02-22 21:59:00,
2013-02-22 16:00:00,37.8,16.8,27.11,NW,315,2.7,3.4,42,0.00,,---,0.00,VWS V14.01,2013-02-22 22:00:00,
2013-02-22 16:04:00,48.0,24.3,27.11,WNW,292,1.6,2.2,39,0.00,,---,0.00,VWS V14.01,2013-02-22 22:04:00,
2013-02-22 16:09:00,48.0,24.3,27.11,WNW,292,2.0,2.2,39,0.00,,---,0.00,VWS V14.01,2013-02-22 22:09:00,
2013-02-22 16:14:00,48.4,24.0,27.11,SW,225,0.0,2.2,38,0.00,,---,0.00,VWS V14.01,2013-02-22 22:14:00,
2013-02-22 16:15:00,37.8,17.3,27.11,NW,315,1.3,2.9,43,0.00,,---,0.00,VWS V14.01,2013-02-22 22:15:00,
2013-02-22 16:19:00,48.4,24.0,27.11,NW,315,0.0,2.5,38,0.00,,---,0.00,VWS V14.01,2013-02-22 22:19:00,
2013-02-22 16:24:00,48.4,24.0,27.11,WNW,292,2.0,2.5,38,0.00,,---,0.00,VWS V14.01,2013-02-22 22:24:00,
2013-02-22 16:29:00,47.5,23.8,27.11,NW,315,0.0,2.5,39,0.00,,---,0.00,VWS V14.01,2013-02-22 22:29:00,
2013-02-22 16:34:00,47.5,23.8,27.11,West,270,1.6,1.6,39,0.00,,---,0.00,VWS V14.01,2013-02-22 22:34:00,
2013-02-22 16:39:00,47.1,22.8,27.11,West,270,1.6,1.6,38,0.00,,---,0.00,VWS V14.01,2013-02-22 22:39:00,
2013-02-22 16:44:00,44.2,20.9,27.11,West,270,2.9,3.1,39,0.00,,---,0.00,VWS V14.01,2013-02-22 22:44:00,
2013-02-22 16:45:00,33.4,15.4,27.11,NW,315,0.0,2.7,47,0.00,,---,0.00,VWS V14.01,2013-02-22 22:45:00,
2013-02-22 16:49:00,44.2,20.9,27.11,WNW,292,2.9,3.1,39,0.00,,---,0.00,VWS V14.01,2013-02-22 22:49:00,
2013-02-22 16:54:00,44.2,20.9,27.11,West,270,2.0,3.1,39,0.00,,---,0.00,VWS V14.01,2013-02-22 22:54:00,
2013-02-22 16:59:00,39.7,18.0,27.11,NW,315,3.1,3.1,41,0.00,,---,0.00,VWS V14.01,2013-02-22 22:59:00,
2013-02-22 17:04:00,37.8,16.8,27.11,NW,315,2.9,2.9,42,0.00,,---,0.00,VWS V14.01,2013-02-22 23:04:00,
2013-02-22 17:09:00,37.8,16.8,27.11,NW,315,1.3,2.9,42,0.00,,---,0.00,VWS V14.01,2013-02-22 23:09:00,
2013-02-22 17:14:00,37.8,17.3,27.11,NW,315,1.3,2.9,43,0.00,,---,0.00,VWS V14.01,2013-02-22 23:14:00,
2013-02-22 17:15:00,27.9,12.1,27.11,NW,315,0.0,0.0,51,0.00,,---,0.00,VWS V14.01,2013-02-22 23:15:00,
2013-02-22 17:19:00,37.6,17.7,27.11,NW,315,2.7,2.7,44,0.00,,---,0.00,VWS V14.01,2013-02-22 23:19:00,
2013-02-22 17:24:00,37.6,17.7,27.11,NW,315,1.6,2.7,44,0.00,,---,0.00,VWS V14.01,2013-02-22 23:24:00,
2013-02-22 17:29:00,36.7,17.4,27.11,NW,315,0.0,2.7,45,0.00,,---,0.00,VWS V14.01,2013-02-22 23:29:00,
2013-02-22 17:30:00,23.5,10.9,27.11,NNE,22,0.0,1.3,58,0.00,,---,0.00,VWS V14.01,2013-02-22 23:30:00,
2013-02-22 17:34:00,36.7,17.4,27.11,NW,315,0.0,2.7,45,0.00,,---,0.00,VWS V14.01,2013-02-22 23:34:00,
2013-02-22 17:39:00,35.6,16.9,27.11,NW,315,0.0,2.7,46,0.00,,---,0.00,VWS V14.01,2013-02-22 23:39:00,
2013-02-22 17:44:00,33.4,15.4,27.11,NW,315,0.0,2.7,47,0.00,,---,0.00,VWS V14.01,2013-02-22 23:44:00,
2013-02-22 17:45:00,23.5,10.9,27.11,NE,45,2.5,2.7,58,0.00,,---,0.00,VWS V14.01,2013-02-22 23:45:00,
2013-02-22 17:49:00,33.4,15.4,27.11,NW,315,0.0,0.0,47,0.00,,---,0.00,VWS V14.01,2013-02-22 23:49:00,
2013-02-22 17:54:00,33.4,15.4,27.11,NW,315,0.0,0.0,47,0.00,,---,0.00,VWS V14.01,2013-02-22 23:54:00,
2013-02-22 17:58:00,28.6,12.3,27.11,NW,315,0.0,0.0,50,0.00,,---,0.00,VWS V14.01,2013-02-22 23:58:00,
2013-02-22 18:03:00,27.9,12.1,27.11,NW,315,0.0,0.0,51,0.00,,---,0.00,VWS V14.01,2013-02-23 00:03:00,
2013-02-22 18:08:00,27.9,12.1,27.11,NW,315,0.0,0.0,51,0.00,,---,0.00,VWS V14.01,2013-02-23 00:08:00,
2013-02-22 18:13:00,27.9,12.1,27.11,NW,315,0.0,0.0,51,0.00,,---,0.00,VWS V14.01,2013-02-23 00:13:00,
2013-02-22 18:18:00,27.9,12.1,27.11,NW,315,0.0,0.0,51,0.00,,---,0.00,VWS V14.01,2013-02-23 00:18:00,
2013-02-22 18:23:00,27.9,12.1,27.11,NW,315,0.0,0.0,51,0.00,,---,0.00,VWS V14.01,2013-02-23 00:23:00,
2013-02-22 18:28:00,23.5,10.9,27.11,NNE,22,0.0,1.3,58,0.00,,---,0.00,VWS V14.01,2013-02-23 00:28:00,
2013-02-22 18:30:00,16.9,8.2,27.11,SSE,158,0.0,2.5,68,0.00,,---,0.00,VWS V14.01,2013-02-23 00:30:00,
2013-02-22 18:33:00,23.5,10.9,27.11,NNE,22,0.0,0.0,58,0.00,,---,0.00,VWS V14.01,2013-02-23 00:33:00,
2013-02-22 18:38:00,23.5,10.9,27.11,NNE,22,2.2,2.7,58,0.00,,---,0.00,VWS V14.01,2013-02-23 00:38:00,
2013-02-22 18:43:00,23.5,10.9,27.11,NE,45,2.5,2.7,58,0.00,,---,0.00,VWS V14.01,2013-02-23 00:43:00,
2013-02-22 18:45:00,16.3,10.7,27.11,NW,315,2.2,2.7,78,0.00,,---,0.00,VWS V14.01,2013-02-23 00:45:00,
2013-02-22 18:48:00,20.1,9.6,27.11,NE,45,0.0,2.5,63,0.00,,---,0.00,VWS V14.01,2013-02-23 00:48:00,
2013-02-22 18:53:00,20.1,9.6,27.11,SSE,158,0.0,2.5,63,0.00,,---,0.00,VWS V14.01,2013-02-23 00:53:00,
2013-02-22 18:58:00,20.1,9.6,27.11,SSE,158,0.0,2.5,63,0.00,,---,0.00,VWS V14.01,2013-02-23 00:58:00,
2013-02-22 19:00:00,16.3,10.7,27.11,NW,315,2.5,2.5,78,0.00,,---,0.00,VWS V14.01,2013-02-23 01:00:00,
2013-02-22 19:03:00,18.3,8.9,27.11,SSE,158,0.0,2.5,66,0.00,,---,0.00,VWS V14.01,2013-02-23 01:03:00,
2013-02-22 19:08:00,18.3,8.9,27.11,SSE,158,0.0,2.5,66,0.00,,---,0.00,VWS V14.01,2013-02-23 01:08:00,
2013-02-22 19:13:00,18.3,8.9,27.11,SSE,158,0.0,2.5,66,0.00,,---,0.00,VWS V14.01,2013-02-23 01:13:00,
2013-02-22 19:15:00,15.1,10.9,27.11,NNW,338,0.0,3.1,83,0.00,,---,0.00,VWS V14.01,2013-02-23 01:15:00,
2013-02-22 19:18:00,18.3,8.9,27.11,SSE,158,0.0,2.5,66,0.00,,---,0.00,VWS V14.01,2013-02-23 01:18:00,
2013-02-22 19:23:00,16.9,8.2,27.11,SSE,158,0.0,2.5,68,0.00,,---,0.00,VWS V14.01,2013-02-23 01:23:00,
2013-02-22 19:28:00,16.9,8.2,27.11,SSE,158,0.0,2.5,68,0.00,,---,0.00,VWS V14.01,2013-02-23 01:28:00,
2013-02-22 19:30:00,13.5,8.4,27.11,NNW,338,0.0,0.0,80,0.00,,---,0.00,VWS V14.01,2013-02-23 01:30:00,
2013-02-22 19:33:00,16.9,8.2,27.11,NW,315,2.7,2.7,68,0.00,,---,0.00,VWS V14.01,2013-02-23 01:33:00,
2013-02-22 19:38:00,16.5,10.3,27.11,NW,315,2.7,2.7,76,0.00,,---,0.00,VWS V14.01,2013-02-23 01:38:00,
2013-02-22 19:43:00,16.3,10.7,27.11,NW,315,2.2,2.7,78,0.00,,---,0.00,VWS V14.01,2013-02-23 01:43:00,
2013-02-22 19:45:00,13.5,8.4,27.11,South,180,0.0,0.0,80,0.00,,---,0.00,VWS V14.01,2013-02-23 01:45:00,
2013-02-22 19:48:00,16.3,10.7,27.11,NW,315,2.5,2.5,78,0.00,,---,0.00,VWS V14.01,2013-02-23 01:48:00,
2013-02-22 19:53:00,16.3,10.7,27.11,NW,315,2.0,2.5,78,0.00,,---,0.00,VWS V14.01,2013-02-23 01:53:00,
2013-02-22 19:58:00,16.3,10.7,27.11,NW,315,0.0,2.5,78,0.00,,---,0.00,VWS V14.01,2013-02-23 01:58:00,
2013-02-22 20:00:00,13.8,8.8,27.11,NW,315,0.0,0.0,80,0.00,,---,0.00,VWS V14.01,2013-02-23 02:00:00,
2013-02-22 20:03:00,16.3,10.7,27.11,NW,315,3.1,3.1,78,0.00,,---,0.00,VWS V14.01,2013-02-23 02:03:00,
2013-02-22 20:08:00,15.8,11.8,27.11,NNW,338,2.0,3.1,84,0.00,,---,0.00,VWS V14.01,2013-02-23 02:08:00,
2013-02-22 20:13:00,15.1,10.9,27.11,NNW,338,0.0,3.1,83,0.00,,---,0.00,VWS V14.01,2013-02-23 02:13:00,
2013-02-22 20:15:00,13.8,8.8,27.11,West,270,2.0,2.2,80,0.00,,---,0.00,VWS V14.01,2013-02-23 02:15:00,
2013-02-22 20:18:00,15.1,10.9,27.11,NNW,338,0.0,0.0,83,0.00,,---,0.00,VWS V14.01,2013-02-23 02:18:00,
2013-02-22 20:23:00,15.1,10.9,27.11,NNW,338,0.0,0.0,83,0.00,,---,0.00,VWS V14.01,2013-02-23 02:23:00,
2013-02-22 20:28:00,13.8,8.8,27.11,NNW,338,0.0,0.0,80,0.00,,---,0.00,VWS V14.01,2013-02-23 02:28:00,
2013-02-22 20:30:00,14.2,10.5,27.11,NW,315,0.0,2.9,85,0.00,,---,0.00,VWS V14.01,2013-02-23 02:30:00,
2013-02-22 20:33:00,13.5,8.4,27.11,NNW,338,0.0,0.0,80,0.00,,---,0.00,VWS V14.01,2013-02-23 02:33:00,
2013-02-22 20:38:00,13.3,8.3,27.11,South,180,0.0,0.0,80,0.00,,---,0.00,VWS V14.01,2013-02-23 02:38:00,
2013-02-22 20:43:00,13.3,8.3,27.11,South,180,0.0,0.0,80,0.00,,---,0.00,VWS V14.01,2013-02-23 02:43:00,
2013-02-22 20:48:00,13.5,8.4,27.11,South,180,0.0,0.0,80,0.00,,---,0.00,VWS V14.01,2013-02-23 02:48:00,
2013-02-22 20:53:00,13.5,8.4,27.11,SW,225,0.0,0.0,80,0.00,,---,0.00,VWS V14.01,2013-02-23 02:53:00,
2013-02-22 20:58:00,13.5,8.4,27.11,SW,225,0.0,0.0,80,0.00,,---,0.00,VWS V14.01,2013-02-23 02:58:00,
2013-02-22 21:00:00,14.4,11.5,27.11,West,270,2.9,4.9,88,0.00,,---,0.00,VWS V14.01,2013-02-23 03:00:00,
2013-02-22 21:03:00,13.8,8.8,27.11,West,270,0.0,1.1,80,0.00,,---,0.00,VWS V14.01,2013-02-23 03:03:00,
2013-02-22 21:08:00,13.8,8.8,27.11,WNW,292,2.2,2.2,80,0.00,,---,0.00,VWS V14.01,2013-02-23 03:08:00,
2013-02-22 21:13:00,13.8,8.8,27.11,West,270,2.0,2.2,80,0.00,,---,0.00,VWS V14.01,2013-02-23 03:13:00,
2013-02-22 21:15:00,14.4,11.5,27.11,WNW,292,3.8,5.6,88,0.00,,---,0.00,VWS V14.01,2013-02-23 03:15:00,
2013-02-22 21:18:00,13.8,8.8,27.11,NW,315,0.0,2.0,80,0.00,,---,0.00,VWS V14.01,2013-02-23 03:18:00,
2013-02-22 21:23:00,14.2,10.5,27.11,WNW,292,2.7,2.9,85,0.00,,---,0.00,VWS V14.01,2013-02-23 03:23:00,
2013-02-22 21:28:00,14.2,10.5,27.11,NW,315,0.0,2.9,85,0.00,,---,0.00,VWS V14.01,2013-02-23 03:28:00,
2013-02-22 21:33:00,13.8,10.4,27.11,WNW,292,2.9,2.9,86,0.00,,---,0.00,VWS V14.01,2013-02-23 03:33:00,
2013-02-22 21:38:00,14.7,12.1,27.11,NW,315,4.3,4.9,89,0.00,,---,0.00,VWS V14.01,2013-02-23 03:38:00,
2013-02-22 21:43:00,14.5,12.4,27.11,West,270,3.4,4.9,91,0.00,,---,0.00,VWS V14.01,2013-02-23 03:43:00,
2013-02-22 21:45:00,14.9,12.0,27.11,West,270,2.0,3.8,88,0.00,,---,0.00,VWS V14.01,2013-02-23 03:45:00,
2013-02-22 21:48:00,14.4,12.0,27.11,WNW,292,4.3,4.9,90,0.00,,---,0.00,VWS V14.01,2013-02-23 03:48:00,
2013-02-22 21:53:00,14.4,12.0,27.11,WNW,292,2.9,4.9,90,0.00,,---,0.00,VWS V14.01,2013-02-23 03:53:00,
2013-02-22 21:58:00,14.2,11.3,27.11,WNW,292,2.7,4.9,88,0.00,,---,0.00,VWS V14.01,2013-02-23 03:58:00,
2013-02-22 22:00:00,13.8,10.1,27.11,NW,315,2.2,4.3,85,0.00,,---,0.00,VWS V14.01,2013-02-23 04:00:00,
2013-02-22 22:03:00,14.4,11.5,27.11,West,270,3.4,5.6,88,0.00,,---,0.00,VWS V14.01,2013-02-23 04:03:00,
2013-02-22 22:08:00,14.4,11.5,27.11,WNW,292,3.8,5.6,88,0.00,,---,0.00,VWS V14.01,2013-02-23 04:08:00,
2013-02-22 22:13:00,14.4,11.5,27.11,WNW,292,3.8,5.6,88,0.00,,---,0.00,VWS V14.01,2013-02-23 04:13:00,
2013-02-22 22:18:00,14.4,11.5,27.11,West,270,3.4,3.8,88,0.00,,---,0.00,VWS V14.01,2013-02-23 04:18:00,
2013-02-22 22:23:00,14.4,11.5,27.11,NW,315,3.1,3.8,88,0.00,,---,0.00,VWS V14.01,2013-02-23 04:23:00,
2013-02-22 22:28:00,15.1,12.7,27.11,WNW,292,3.1,3.8,90,0.00,,---,0.00,VWS V14.01,2013-02-23 04:28:00,
2013-02-22 22:30:00,12.9,9.3,27.11,West,270,4.9,5.8,85,0.00,,---,0.00,VWS V14.01,2013-02-23 04:30:00,
2013-02-22 22:33:00,14.9,12.0,27.11,WNW,292,2.7,3.8,88,0.00,,---,0.00,VWS V14.01,2013-02-23 04:33:00,
2013-02-22 22:38:00,14.9,12.0,27.11,WNW,292,2.9,3.8,88,0.00,,---,0.00,VWS V14.01,2013-02-23 04:38:00,
2013-02-22 22:43:00,14.9,12.0,27.11,NW,315,0.0,3.8,88,0.00,,---,0.00,VWS V14.01,2013-02-23 04:43:00,
2013-02-22 22:45:00,12.9,9.3,27.08,West,270,4.3,4.9,85,0.00,,---,0.00,VWS V14.01,2013-02-23 04:45:00,
2013-02-22 22:48:00,14.9,12.0,27.11,West,270,2.5,2.5,88,0.00,,---,0.00,VWS V14.01,2013-02-23 04:48:00,
2013-02-22 22:53:00,14.2,10.5,27.11,West,270,4.3,4.3,85,0.00,,---,0.00,VWS V14.01,2013-02-23 04:53:00,
2013-02-22 22:58:00,13.8,10.1,27.11,WNW,292,0.0,4.3,85,0.00,,---,0.00,VWS V14.01,2013-02-23 04:58:00,
2013-02-22 23:00:00,13.8,10.1,27.11,NW,315,1.3,4.3,85,0.00,,---,0.00,VWS V14.01,2013-02-23 05:00:00,
2013-02-22 23:05:00,13.3,9.6,27.11,West,270,0.0,2.2,85,0.00,,---,0.00,VWS V14.01,2013-02-23 05:05:00,
2013-02-22 23:10:00,12.7,9.1,27.11,WSW,248,0.0,2.2,85,0.00,,---,0.00,VWS V14.01,2013-02-23 05:10:00,
2013-02-22 23:15:00,12.2,8.6,27.11,West,270,0.0,2.2,85,0.00,,---,0.00,VWS V14.01,2013-02-23 05:15:00,
2013-02-22 23:20:00,12.6,8.9,27.11,WSW,248,2.0,2.2,85,0.00,,---,0.00,VWS V14.01,2013-02-23 05:20:00,
2013-02-22 23:25:00,12.9,9.3,27.11,WNW,292,5.8,5.8,85,0.00,,---,0.00,VWS V14.01,2013-02-23 05:25:00,
2013-02-22 23:30:00,12.9,9.3,27.11,WNW,292,2.7,5.8,85,0.00,,---,0.00,VWS V14.01,2013-02-23 05:30:00,
2013-02-22 23:35:00,12.9,9.3,27.08,West,270,4.3,4.9,85,0.00,,---,0.00,VWS V14.01,2013-02-23 05:35:00,
2013-02-22 23:40:00,12.9,9.3,27.08,West,270,2.7,4.9,85,0.00,,---,0.00,VWS V14.01,2013-02-23 05:40:00,
2013-02-22 23:45:00,12.9,9.3,27.08,NW,315,3.8,4.9,85,0.00,,---,0.00,VWS V14.01,2013-02-23 05:45:00,
2013-02-22 23:50:00,14.2,11.5,27.08,WNW,292,3.1,4.3,89,0.00,,---,0.00,VWS V14.01,2013-02-23 05:50:00,
2013-02-22 23:55:00,14.0,10.9,27.11,WSW,248,2.5,4.3,87,0.00,,---,0.00,VWS V14.01,2013-02-23 05:55:00,